SP5IZJ-2 Weather Reports


Display with metric or nautical units.
time (UTC)temp
F
wind
direction
speed
MPH
gust
MPH
rain 1hr
in
rain 24hr
in
rain mn
in
humidity
%
barometer
mb
20260831225710 61 0 0.0 1.0 0.00 0.00 0.00 93 1005.6
20260831225010 61 0 0.0 4.0 0.00 0.00 0.00 93 1005.8
20260831224309 61 0 0.0 3.0 0.00 0.00 0.00 93 1005.7
20260831223609 60 0 0.0 0.0 0.00 0.00 0.00 93 1005.8
20260831222910 60 0 0.0 0.0 0.00 0.00 0.00 93 1005.8
20260831222214 60 0 0.0 0.0 0.00 0.00 0.00 93 1005.6
20260831220112 60 0 0.0 0.0 0.00 0.00 0.00 93 1005.6
20260831215411 61 0 0.0 0.0 0.00 0.00 0.00 93 1005.4
20260831214710 61 0 0.0 0.0 0.00 0.00 0.00 93 1005.9
20260831214015 61 0 0.0 0.0 0.00 0.00 0.00 93 1006.1
20260831213312 62 0 0.0 0.0 0.00 0.00 0.00 93 1006.0
20260831212613 62 0 0.0 0.0 0.00 0.00 0.00 93 1006.0
20260831211911 62 0 0.0 1.0 0.00 0.00 0.00 93 1005.9
20260831211231 62 0 0.0 1.0 0.00 0.00 0.00 93 1005.9
20260831210525 62 0 0.0 0.0 0.00 0.00 0.00 93 1005.9
20260831205121 62 0 0.0 0.0 0.00 0.00 0.00 93 1005.9
20260831204412 62 0 0.0 0.0 0.00 0.00 0.00 93 1005.7
20260831203058 62 0 0.0 0.0 0.00 0.00 0.00 92 1005.7
20260831202314 62 0 0.0 0.0 0.00 0.00 0.00 92 1005.8
20260831201629 62 0 0.0 0.0 0.00 0.00 0.00 92 1005.7
20260831194900 63 0 0.0 0.0 0.00 0.00 0.00 92 1005.6
20260831194119 63 0 0.0 1.0 0.00 0.00 0.00 92 1005.6
20260831192800 62 0 0.0 0.0 0.00 0.00 0.00 91 1005.5
20260831192014 62 0 0.0 0.0 0.00 0.00 0.00 91 1005.7
20260831191314 62 0 0.0 0.0 0.00 0.00 0.00 91 1005.6
20260831190701 62 0 0.0 0.0 0.00 0.00 0.00 91 1005.6
20260831190000 62 0 0.0 0.0 0.00 0.00 0.00 91 1005.5
20260831185228 62 0 0.0 0.0 0.00 0.00 0.00 91 1005.6
20260831184602 62 0 0.0 0.0 0.00 0.00 0.00 91 1005.6
20260831183856 63 0 0.0 0.0 0.00 0.00 0.00 90 1005.6
20260831183212 63 0 0.0 0.0 0.00 0.00 0.00 90 1005.5
20260831181100 64 0 0.0 0.0 0.00 0.00 0.00 89 1005.5
20260831180403 64 0 0.0 1.0 0.00 0.00 0.00 89 1005.4
20260831173545 66 0 0.0 4.0 0.00 0.00 0.00 86 1005.0
20260831172151 67 0 0.0 3.0 0.00 0.00 0.00 84 1004.8
20260831171447 68 0 2.0 6.0 0.00 0.00 0.00 83 1004.7
20260831170022 70 0 4.0 7.0 0.00 0.00 0.00 80 1004.7
20260831165327 72 0 3.0 7.0 0.00 0.00 0.00 79 1004.7
20260831164626 71 0 3.0 7.0 0.00 0.00 0.00 81 1004.7
20260831163919 69 0 2.0 7.0 0.00 0.00 0.00 83 1004.8
20260831162542 69 0 3.0 7.0 0.00 0.00 0.00 81 1004.9
20260831161123 75 0 4.0 9.0 0.00 0.00 0.00 73 1004.6
20260831160420 75 0 6.0 10.0 0.00 0.00 0.00 74 1004.6
20260831155728 75 0 6.0 9.0 0.00 0.00 0.00 73 1004.6
20260831155037 74 0 5.0 8.0 0.00 0.00 0.00 75 1004.6
20260831154339 72 0 4.0 8.0 0.00 0.00 0.00 82 1004.7
20260831153620 68 0 4.0 10.0 0.00 0.00 0.00 87 1004.7
20260831152224 68 0 1.0 8.0 0.00 0.00 0.00 87 1005.0
20260831145501 68 0 0.0 3.0 0.00 0.00 0.00 89 1004.9
20260831145425 68 0 0.0 3.0 0.00 0.00 0.00 89 1004.9
20260831144741 67 0 0.0 4.0 0.00 0.00 0.00 89 1005.0
20260831144037 66 0 0.0 4.0 0.00 0.00 0.00 89 1005.1
20260831142624 66 0 0.0 5.0 0.00 0.00 0.00 88 1005.0
20260831140607 67 338 2.0 14.0 0.00 0.00 0.00 85 1005.5
20260831135131 68 23 0.0 4.0 0.00 0.00 0.00 83 1005.8
20260831134433 69 23 0.0 0.0 0.00 0.00 0.00 81 1005.7
20260831133727 69 23 0.0 0.0 0.00 0.00 0.00 79 1005.5
20260831132324 71 23 0.0 0.0 0.00 0.00 0.00 78 1005.5
20260831131641 71 23 0.0 0.0 0.00 0.00 0.00 77 1005.5
20260831130224 70 23 0.0 0.0 0.00 0.00 0.00 78 1005.6
20260831125529 70 23 0.0 0.0 0.00 0.00 0.00 79 1005.6
20260831124825 68 23 0.0 0.0 0.00 0.00 0.00 79 1005.7
20260831124124 68 23 0.0 0.0 0.00 0.00 0.00 78 1005.7
20260831123457 68 23 0.0 0.0 0.00 0.00 0.00 76 1005.5
20260831122734 68 23 0.0 0.0 0.00 0.00 0.00 73 1005.4
20260831121333 74 0 12.0 19.0 0.00 0.00 0.00 65 1006.0
20260831120629 75 0 8.0 17.0 0.00 0.00 0.00 64 1005.9
20260831115926 77 0 4.0 9.0 0.00 0.00 0.00 61 1005.2
20260831114528 77 0 0.0 3.0 0.00 0.00 0.00 63 1005.0
20260831113843 77 0 0.0 3.0 0.00 0.00 0.00 61 1005.0
20260831113130 77 0 0.0 4.0 0.00 0.00 0.00 61 1005.0
20260831112430 78 0 2.0 4.0 0.00 0.00 0.00 59 1005.0
20260831111736 79 0 1.0 4.0 0.00 0.00 0.00 59 1005.1
20260831111034 78 0 1.0 3.0 0.00 0.00 0.00 59 1005.1
20260831110328 78 0 1.0 4.0 0.00 0.00 0.00 58 1005.1
20260831105627 78 0 1.0 4.0 0.00 0.00 0.00 58 1005.1
20260831104928 79 0 1.0 4.0 0.00 0.00 0.00 57 1005.1
20260831104227 79 0 1.0 4.0 0.00 0.00 0.00 56 1004.9
20260831103528 79 0 2.0 7.0 0.00 0.00 0.00 54 1004.9
20260831102839 80 0 1.0 5.0 0.00 0.00 0.00 56 1005.1
20260831102129 79 0 2.0 4.0 0.00 0.00 0.00 55 1005.1
20260831100814 79 0 6.0 10.0 0.00 0.00 0.00 53 1005.1
20260831100121 81 0 2.0 6.0 0.00 0.00 0.00 51 1005.2
20260831095415 83 0 0.0 7.0 0.00 0.00 0.00 50 1005.2
20260831094717 84 0 2.0 7.0 0.00 0.00 0.00 49 1005.2
20260831093930 87 0 2.0 10.0 0.00 0.00 0.00 45 1005.1
20260831093230 91 270 1.0 10.0 0.00 0.00 0.00 41 1005.1
20260831092543 89 0 1.0 7.0 0.00 0.00 0.00 48 1005.1
20260831091830 88 248 1.0 7.0 0.00 0.00 0.00 46 1005.2
20260831091206 89 248 0.0 0.0 0.00 0.00 0.00 47 1005.2
20260831085731 91 359 0.0 0.0 0.00 0.00 0.00 47 1005.3
20260831085031 90 359 0.0 0.0 0.00 0.00 0.00 47 1005.4
20260831084334 90 248 0.0 0.0 0.00 0.00 0.00 46 1005.4
20260831083630 90 248 0.0 0.0 0.00 0.00 0.00 47 1005.5
20260831082943 89 248 0.0 0.0 0.00 0.00 0.00 47 1005.4
20260831082233 89 0 0.0 0.0 0.00 0.00 0.00 49 1005.5
20260831081531 88 270 0.0 0.0 0.00 0.00 0.00 50 1005.7
20260831080831 87 270 0.0 0.0 0.00 0.00 0.00 52 1005.8
20260831080131 86 270 0.0 0.0 0.00 0.00 0.00 55 1005.7
20260831075438 84 359 0.0 0.0 0.00 0.00 0.00 58 1005.6
20260831074035 81 293 0.0 0.0 0.00 0.00 0.00 64 1005.5
20260831073340 78 270 0.0 0.0 0.00 0.00 0.00 69 1005.5
20260831072642 75 0 0.0 0.0 0.00 0.00 0.00 73 1005.7
20260831072053 73 359 0.0 0.0 0.00 0.00 0.00 72 1005.9
20260831071232 72 0 0.0 0.0 0.00 0.00 0.00 74 1006.0
20260831070637 71 0 0.0 0.0 0.00 0.00 0.00 75 1005.8
20260831070506 70 0 0.0 0.0 0.00 0.00 0.00 75 1005.8
20260831070423 70 0 0.0 0.0 0.00 0.00 0.00 75 1005.8
20260831070138 70 0 0.0 0.0 0.00 0.00 0.00 75 1005.9
20260831065836 70 0 0.0 0.0 0.00 0.00 0.00 76 1005.8
20260831065733 69 0 0.0 0.0 0.00 0.00 0.00 77 1006.0
20260831065133 70 0 0.0 0.0 0.00 0.00 0.00 75 1005.9
20260831064433 70 0 0.0 0.0 0.00 0.00 0.00 76 1005.8
20260831063937 68 0 0.0 0.0 0.00 0.00 0.00 77 1005.9
20260831060938 68 0 0.0 0.0 0.00 0.00 0.00 77 1005.9
20260831060456 67 0 0.0 0.0 0.00 0.00 0.00 77 1006.1
20260831060234 67 0 0.0 0.0 0.00 0.00 0.00 77 1006.1
20260831055647 68 0 0.0 0.0 0.00 0.00 0.00 76 1005.9
20260831054838 68 0 0.0 0.0 0.00 0.00 0.00 75 1006.0
20260831054145 69 0 0.0 0.0 0.00 0.00 0.00 76 1006.0
20260831052747 67 0 0.0 0.0 0.00 0.00 0.00 81 1006.1
20260831052234 66 0 0.0 0.0 0.00 0.00 0.00 85 1006.1
20260831052035 66 0 0.0 0.0 0.00 0.00 0.00 85 1006.1
20260831051341 64 0 0.0 0.0 0.00 0.00 0.00 89 1006.0
20260831050642 61 0 0.0 0.0 0.00 0.00 0.00 91 1006.2
20260831045951 59 0 0.0 0.0 0.00 0.00 0.00 90 1006.3
20260831045257 58 0 0.0 0.0 0.00 0.00 0.00 89 1006.3
20260831044551 57 0 0.0 0.0 0.00 0.00 0.00 89 1006.3
20260831043839 57 0 0.0 0.0 0.00 0.00 0.00 89 1006.3
20260831042444 57 0 0.0 0.0 0.00 0.00 0.00 89 1006.0
20260831041806 57 0 0.0 0.0 0.00 0.00 0.00 88 1006.1
20260831041145 56 0 0.0 0.0 0.00 0.00 0.00 88 1006.0
20260831035637 57 0 0.0 0.0 0.00 0.00 0.00 88 1006.3
20260831034944 57 0 0.0 0.0 0.00 0.00 0.00 88 1006.4
20260831032840 58 0 0.0 0.0 0.00 0.00 0.00 89 1006.1
20260831032138 58 0 0.0 0.0 0.00 0.00 0.00 89 1006.1
20260831031459 58 0 0.0 0.0 0.00 0.00 0.00 88 1006.0
20260831030738 58 0 0.0 0.0 0.00 0.00 0.00 88 1006.1
20260831030048 57 0 0.0 0.0 0.00 0.00 0.00 88 1006.3
20260831025339 57 0 0.0 0.0 0.00 0.00 0.00 88 1006.3
20260831024641 57 0 0.0 0.0 0.00 0.00 0.00 88 1006.3
20260831023939 57 0 0.0 0.0 0.00 0.00 0.00 87 1006.1
20260831023242 57 0 0.0 0.0 0.00 0.00 0.00 87 1006.0
20260831021840 57 0 0.0 0.0 0.00 0.00 0.00 87 1006.4
20260831021140 58 0 0.0 0.0 0.00 0.00 0.00 87 1006.2
20260831020446 58 0 0.0 0.0 0.00 0.00 0.00 87 1006.2
20260831015744 58 0 0.0 0.0 0.00 0.00 0.00 86 1006.2
20260831015044 58 0 0.0 0.0 0.00 0.00 0.00 86 1006.3
20260831014344 58 359 0.0 0.0 0.00 0.00 0.00 85 1006.3
20260831013641 212 359 0.0 0.0 0.00 0.00 0.00 100
20260831012948 58 0 0.0 0.0 0.00 0.00 0.00 85 1006.2
20260831012245 58 0 0.0 0.0 0.00 0.00 0.00 84 1006.1
20260831011552 59 0 0.0 0.0 0.00 0.00 0.00 84 1006.0
20260831010841 59 0 0.0 0.0 0.00 0.00 0.00 84 1006.0
20260831010219 59 0 0.0 0.0 0.00 0.00 0.00 83 1006.1
20260831005443 59 0 0.0 0.0 0.00 0.00 0.00 83 1006.0
20260831004742 59 0 0.0 0.0 0.00 0.00 0.00 83 1006.2
20260831004102 59 0 0.0 0.0 0.00 0.00 0.00 83 1006.4
20260831002642 60 0 0.0 0.0 0.00 0.00 0.00 83 1006.3
20260831001943 60 0 0.0 0.0 0.00 0.00 0.00 82 1006.3
20260831001247 60 0 0.0 0.0 0.00 0.00 0.00 82 1006.2
20260831000545 60 0 0.0 0.0 0.00 0.00 0.00 82 1006.3
20260830235846 60 0 0.0 0.0 0.00 0.00 0.00 82 1006.2
20260830235145 60 0 0.0 0.0 0.00 0.00 0.00 82 1006.3
20260830234446 60 0 0.0 0.0 0.00 0.00 0.00 81 1006.3
20260830233749 60 0 0.0 0.0 0.00 0.00 0.00 81 1006.4
20260830233046 60 0 0.0 0.0 0.00 0.00 0.00 81 1006.3
20260830232345 60 0 0.0 0.0 0.00 0.00 0.00 81 1006.3
20260830231649 60 0 0.0 0.0 0.00 0.00 0.00 81 1006.3
20260830230944 60 0 0.0 0.0 0.00 0.00 0.00 81 1006.2
20260830230248 61 0 0.0 0.0 0.00 0.00 0.00 81 1006.3